[[{"header":{"parameterUnit":"m.s-1","parameterCategory":1,"la1":30.2991,"la2":30.254,"lo1":-89.0895,"lo2":-89.0444,"dx":0.0017,"dy":0.0017,"nx":28,"ny":28,"refTime":"2023-01-27T09:00:00:Z","depth":0,"parameterNumber":2,"parameterNumberName":"U-component_of_WINDS"},"data":[0,0,0,0,0,0,0,0,0,0,0,0,0,0,0,0,0,0,0,0,0,0,0,0,0,0,0,0,0,0,0,0,0,0,0,0,0,0,0,0,0,0,0,0,0,0,0,0,0,0,0,0,0,0,0,0,0,0,0.945,0.945,0,0.943,0.943,0.9429,0.9412,0.9412,0.9412,0.9412,0.9389,0.9388,0.9388,0,0,0,0,0,0,0,0,0,0,0,0,0,0.9474,0.9474,0.945,0.945,0.945,0.943,0.943,0.9429,0.9412,0.9412,0.9412,0.9411,0.9389,0.9388,0.9388,0,0,0,0,0,0,0,0,0,0,0,0,0,0.946,0.9473,0.945,0.9439,0.9438,0.943,0.943,0.9429,0.9412,0.9412,0.9412,0.9411,0.9389,0.9388,0.9388,0.9389,0,0,0.9386,0.9385,0,0,0,0,0,0,0,0,0.946,0.9459,0.9441,0.944,0.9438,0.9423,0.943,0.9416,0.9412,0.9422,0.9412,0.9411,0.94,0.9399,0.9395,0.9388,0.9387,0.9386,0.9385,0.9385,0.9385,0,0,0,0,0,0,0,0.9461,0.9459,0.9442,0.9441,0.9439,0.9435,0.9432,0.9427,0.9413,0.9421,0.942,0.9418,0.94,0.9396,0.9395,0.9387,0.9386,0.9385,0.9385,0.9384,0.9381,0.9381,0,0,0,0,0,0,0.9464,0.946,0.9443,0.9442,0.9449,0.9434,0.9432,0.9428,0.9413,0.941,0.9418,0.9417,0.9397,0.9396,0.9394,0.9395,0.9385,0.9384,0.9384,0.938,0.9381,0.9381,0,0,0,0,0,0,0.9465,0.9463,0.9444,0.9451,0.9448,0.9434,0.9431,0.9428,0.9425,0.9411,0.9408,0.9417,0.9397,0.9395,0.9391,0.9394,0.9384,0.9384,0.938,0.9381,0.9381,0.9397,0,0,0,0,0,0,0.9466,0.9463,0.9464,0.9451,0.9448,0.9441,0.9431,0.9428,0.9424,0.9422,0.9409,0.9406,0.9397,0.9392,0.939,0.9393,0.9383,0.938,0.938,0.9381,0.9396,0.9398,0.9399,0,0,0,0,0,0.9467,0.9468,0.9464,0.9462,0.9448,0.9441,0.9439,0.9429,0.9424,0.9424,0.9416,0.9407,0.9394,0.9392,0.939,0.9392,0.9379,0.938,0.9381,0.9395,0.9397,0.9399,0,0,0,0,0,0,0.9481,0.9466,0.9461,0.9459,0.9452,0.9438,0.9438,0.9431,0.9425,0.9423,0.941,0.9407,0.9405,0.9398,0.9396,0.9393,0.9386,0.9386,0.9397,0.9399,0.9401,0.9402,0.9382,0,0,0,0,0,0.9484,0.948,0.9468,0.9467,0.9464,0.9452,0.9449,0.9441,0.9433,0.9429,0.942,0.9412,0.9406,0.9403,0.9396,0.9395,0.9392,0.9396,0.9398,0.9399,0.9399,0.9399,0.94,0.9383,0.9383,0.9383,0,0,0.949,0.9482,0.948,0.947,0.9463,0.9459,0.9449,0.9445,0.9442,0.9429,0.9424,0.9418,0.9408,0.9405,0.9404,0.94,0.9404,0.94,0.9401,0.9401,0.94,0.9401,0.9403,0.9384,0.9384,0.9384,0,0,0.9499,0.9492,0.9491,0.9485,0.9476,0.9468,0.9468,0.9456,0.9452,0.9448,0.9437,0.9434,0.9424,0.9417,0.9413,0.9421,0.9413,0.942,0.9428,0.9428,0.9429,0.943,0.9433,0.9434,0.942,0.942,0.942,0,0.9507,0.9501,0.9491,0.9488,0.9484,0.9473,0.9472,0.9466,0.9455,0.9453,0.9449,0.9437,0.9429,0.9426,0.9428,0.9425,0.9424,0.9421,0.943,0.9431,0.9432,0.9434,0.9436,0.9421,0.9421,0.9421,0.9421,0,0.9512,0.9508,0.9508,0.9499,0.9495,0.9493,0.9483,0.948,0.9474,0.9467,0.9463,0.9454,0.9446,0.9445,0.9438,0.9441,0.9439,0.9432,0.9424,0.9434,0.9437,0.9438,0.9422,0.9422,0.9422,0.9421,0,0,0.9527,0.9514,0.9514,0.951,0.95,0.9497,0.9495,0.9488,0.9486,0.9479,0.9477,0.947,0.9465,0.946,0.9452,0.9452,0.946,0.9446,0.9445,0.9449,0.9462,0.9466,0.9468,0.9455,0.9455,0.9455,0.9463,0,0.9534,0.953,0.9522,0.952,0.9517,0.9507,0.9505,0.9499,0.9492,0.9489,0.9482,0.9477,0.947,0.9467,0.9467,0.9459,0.9462,0.9458,0.9452,0.9452,0.9454,0.9469,0.9473,0.9481,0.9464,0.9464,0.9464,0,0.9541,0.9536,0.9534,0.9525,0.9523,0.9522,0.9516,0.9512,0.9505,0.9501,0.9496,0.9489,0.9486,0.948,0.9476,0.9474,0.9471,0.9467,0.9467,0.9465,0.9458,0.9467,0.9483,0.9484,0.9465,0.9465,0.9465,0,0.9552,0.9545,0.9543,0.954,0.953,0.9529,0.9525,0.9517,0.9514,0.9509,0.9507,0.9501,0.9497,0.9493,0.9484,0.9481,0.9482,0.9475,0.9478,0.9478,0.9477,0.9477,0.9493,0.9477,0.9477,0.9477,0.9477,0,0.956,0.9559,0.9548,0.9547,0.9546,0.9537,0.9537,0.9531,0.9525,0.9523,0.9514,0.9512,0.9501,0.9497,0.949,0.9489,0.9487,0.9483,0.9481,0.9484,0.9484,0.9481,0.948,0.9477,0.9477,0.9477,0.9477,0,0.9572,0.9565,0.9562,0.9553,0.9551,0.9551,0.9543,0.9541,0.9535,0.9533,0.9531,0.9522,0.9518,0.9509,0.9502,0.9497,0.9497,0.9494,0.95,0.9498,0.9502,0.9502,0.9515,0.9516,0.95,0.9501,0.9501,0,0.9577,0.9576,0.9568,0.9566,0.9562,0.9559,0.9556,0.9548,0.9545,0.9538,0.9538,0.9533,0.9529,0.9523,0.9515,0.951,0.9506,0.9511,0.9505,0.9508,0.9506,0.9506,0.9506,0.9512,0.9513,0.9513,0.9513,0,0.9587,0.9584,0.958,0.9576,0.9573,0.9569,0.9564,0.9563,0.9554,0.9551,0.9548,0.9544,0.9538,0.9534,0.9528,0.9523,0.9516,0.9515,0.9516,0.9518,0.9521,0.9519,0.9503,0.9515,0.9514,0.9514,0.9514,0.9514,0.9595,0.9595,0.9589,0.9586,0.9582,0.9578,0.9576,0.9571,0.9568,0.9562,0.9558,0.9554,0.9548,0.954,0.9536,0.9533,0.953,0.953,0.953,0.9531,0.9532,0.9522,0.9532,0.9532,0.9532,0.9532,0.9532,0,0.9605,0.9601,0.9598,0.9593,0.959,0.9585,0.958,0.9579,0.9576,0.9571,0.9568,0.9564,0.956,0.9553,0.9548,0.9547,0.9544,0.9546,0.9546,0.9545,0.9535,0.9535,0.9549,0.9549,0.9549,0.9549,0.9549,0.9549,0.9609,0.9608,0.9604,0.9601,0.9597,0.9594,0.9592,0.9589,0.9585,0.9581,0.9578,0.9574,0.9568,0.9564,0.956,0.9558,0.9557,0.956,0.9557,0.9547,0.9546,0.9544,0.9544,0.956,0.956,0.9567,0.9567,0.9567]},{"header":{"parameterUnit":"m.s-1","parameterCategory":1,"la1":30.2991,"la2":30.254,"lo1":-89.0895,"lo2":-89.0444,"dx":0.0017,"dy":0.0017,"nx":28,"ny":28,"refTime":"2023-01-27T09:00:00:Z","depth":0,"parameterNumber":3,"parameterNumberName":"V-component_of_WINDS"},"data":[0,0,0,0,0,0,0,0,0,0,0,0,0,0,0,0,0,0,0,0,0,0,0,0,0,0,0,0,0,0,0,0,0,0,0,0,0,0,0,0,0,0,0,0,0,0,0,0,0,0,0,0,0,0,0,0,0,0,-4.918,-4.9181,0,-4.9351,-4.9353,-4.9355,-4.9306,-4.9303,-4.9299,-4.9296,-4.9469,-4.9477,-4.9485,0,0,0,0,0,0,0,0,0,0,0,0,0,-4.8807,-4.8814,-4.9179,-4.9182,-4.9184,-4.9351,-4.9353,-4.9355,-4.9307,-4.9303,-4.9299,-4.9295,-4.9467,-4.9476,-4.9485,0,0,0,0,0,0,0,0,0,0,0,0,0,-4.8973,-4.8817,-4.9179,-4.918,-4.9182,-4.935,-4.9353,-4.9356,-4.9308,-4.9303,-4.9297,-4.9293,-4.9463,-4.9475,-4.9487,-4.9664,0,0,-4.9523,-4.9528,0,0,0,0,0,0,0,0,-4.8964,-4.8987,-4.9178,-4.918,-4.9182,-4.9302,-4.9285,-4.9459,-4.9309,-4.926,-4.9296,-4.929,-4.9418,-4.9433,-4.9476,-4.9672,-4.968,-4.9524,-4.9531,-4.9536,-4.9539,0,0,0,0,0,0,0,-4.8952,-4.8979,-4.9247,-4.918,-4.9183,-4.9171,-4.9188,-4.9318,-4.9366,-4.9264,-4.9261,-4.9282,-4.9418,-4.9465,-4.948,-4.9682,-4.9523,-4.9534,-4.9541,-4.9546,-5.0032,-5.0038,0,0,0,0,0,0,-4.8939,-4.897,-4.9242,-4.9252,-4.9058,-4.9182,-4.9201,-4.9269,-4.9364,-4.9374,-4.9286,-4.9279,-4.9448,-4.9466,-4.9486,-4.9701,-4.9536,-4.9547,-4.9554,-5.0026,-5.0033,-5.004,0,0,0,0,0,0,-4.8932,-4.8964,-4.9235,-4.911,-4.9144,-4.9194,-4.927,-4.9275,-4.9322,-4.9381,-4.9389,-4.9326,-4.9444,-4.9469,-4.962,-4.9706,-4.9552,-4.9563,-5.0019,-5.0028,-5.0036,-5.0131,0,0,0,0,0,0,-4.8921,-4.8962,-4.903,-4.9112,-4.9151,-4.9368,-4.9275,-4.9282,-4.9343,-4.9335,-4.9421,-4.943,-4.9442,-4.9603,-4.9632,-4.9719,-4.9572,-5.0012,-5.0023,-5.0034,-5.012,-5.0142,-5.016,0,0,0,0,0,-4.8908,-4.9049,-4.9034,-4.9067,-4.9238,-4.9373,-4.9394,-4.9406,-4.935,-4.9419,-4.9457,-4.9427,-4.9692,-4.9619,-4.9651,-4.9743,-5.0007,-5.002,-5.0033,-5.0111,-5.0137,-5.0159,0,0,0,0,0,0,-4.8975,-4.906,-4.9044,-4.9216,-4.9288,-4.9364,-4.9452,-4.9434,-4.9522,-4.9511,-4.9521,-4.9541,-4.9695,-4.9734,-4.9652,-4.992,-4.9841,-4.9861,-4.9889,-4.9915,-4.9934,-4.9922,-4.9582,0,0,0,0,0,-4.901,-4.9114,-4.9182,-4.9327,-4.9364,-4.9402,-4.9461,-4.9464,-4.9538,-4.9568,-4.9616,-4.9689,-4.9788,-4.9853,-4.9948,-5.0125,-5.0143,-5.0204,-5.0224,-5.024,-5.0258,-5.0354,-5.0382,-5.0083,-5.0083,-5.0082,0,0,-4.9084,-4.9143,-4.9207,-4.9342,-4.9398,-4.9504,-4.9428,-4.9543,-4.9621,-4.9585,-4.9731,-4.9769,-4.985,-5.0015,-5.009,-5.0052,-5.0344,-5.0257,-5.0269,-5.0278,-5.0371,-5.0399,-5.0424,-5.0092,-5.009,-5.0089,0,0,-4.9271,-4.9327,-4.9454,-4.9512,-4.9597,-4.9621,-4.9652,-4.9731,-4.9756,-4.9903,-4.9877,-4.997,-5.0141,-5.02,-5.0252,-5.0462,-5.0438,-5.0492,-5.0597,-5.0691,-5.0714,-5.0735,-5.0811,-5.0837,-5.051,-5.051,-5.051,0,-4.9352,-4.9511,-4.9522,-4.964,-4.97,-4.9672,-4.9801,-4.9856,-4.9967,-5.0009,-4.9965,-5.0179,-5.0232,-5.041,-5.0461,-5.0505,-5.0539,-5.0483,-5.071,-5.0731,-5.0751,-5.0823,-5.0851,-5.0516,-5.0515,-5.0515,-5.0514,0,-4.9606,-4.9717,-4.9809,-4.9919,-4.9989,-5.0112,-5.014,-5.021,-5.0206,-5.0235,-5.0385,-5.0447,-5.0554,-5.0596,-5.0593,-5.0774,-5.0748,-5.0707,-5.0628,-5.0786,-5.0853,-5.0881,-5.0525,-5.0523,-5.0521,-5.0519,0,0,-4.9842,-4.9955,-4.9989,-5.0039,-5.0131,-5.0217,-5.0337,-5.0443,-5.0503,-5.058,-5.0682,-5.0827,-5.079,-5.0849,-5.0853,-5.0935,-5.1098,-5.0884,-5.0886,-5.0922,-5.1302,-5.1332,-5.1364,-5.1082,-5.1087,-5.1092,-5.1295,0,-5.0038,-5.0252,-5.0265,-5.0459,-5.0561,-5.0536,-5.0642,-5.0709,-5.0739,-5.083,-5.0862,-5.0965,-5.0908,-5.0944,-5.1024,-5.1061,-5.1175,-5.1047,-5.1177,-5.1181,-5.1158,-5.14,-5.1433,-5.1622,-5.1321,-5.1326,-5.1329,0,-5.0296,-5.0383,-5.0587,-5.0665,-5.0708,-5.0803,-5.0901,-5.0988,-5.1063,-5.1079,-5.1146,-5.1138,-5.1261,-5.1177,-5.1346,-5.1259,-5.1313,-5.1339,-5.1347,-5.136,-5.1265,-5.142,-5.1682,-5.1711,-5.1371,-5.1367,-5.1364,0,-5.0448,-5.0616,-5.076,-5.0803,-5.0897,-5.0964,-5.1006,-5.1077,-5.1139,-5.1224,-5.1265,-5.1362,-5.1416,-5.1491,-5.1509,-5.1446,-5.1679,-5.1596,-5.1695,-5.1695,-5.1746,-5.1743,-5.2022,-5.178,-5.1779,-5.1779,-5.1778,0,-5.0667,-5.0793,-5.083,-5.0919,-5.1059,-5.1072,-5.121,-5.1247,-5.131,-5.1405,-5.1389,-5.1478,-5.1497,-5.1589,-5.1604,-5.1743,-5.1767,-5.1783,-5.1785,-5.1785,-5.1783,-5.1821,-5.1808,-5.1786,-5.1785,-5.1783,-5.1782,0,-5.0861,-5.0891,-5.1046,-5.1123,-5.1145,-5.1245,-5.131,-5.1395,-5.1422,-5.1543,-5.1572,-5.1615,-5.1723,-5.1749,-5.1877,-5.1887,-5.2051,-5.2041,-5.2027,-5.2026,-5.2124,-5.2115,-5.2437,-5.248,-5.2209,-5.2212,-5.2214,0,-5.0999,-5.1096,-5.1183,-5.1246,-5.1291,-5.1392,-5.1456,-5.1472,-5.1539,-5.1632,-5.1706,-5.1813,-5.1899,-5.2073,-5.2115,-5.2214,-5.2206,-5.2312,-5.222,-5.2217,-5.2208,-5.2203,-5.2213,-5.233,-5.2333,-5.2335,-5.2337,0,-5.1241,-5.1251,-5.1344,-5.1443,-5.152,-5.1598,-5.1673,-5.1725,-5.1751,-5.1827,-5.1938,-5.2005,-5.2137,-5.2243,-5.2342,-5.2384,-5.2365,-5.2365,-5.2393,-5.2395,-5.2383,-5.2391,-5.2075,-5.2358,-5.2356,-5.2354,-5.2353,-5.2352,-5.1412,-5.1497,-5.1571,-5.1676,-5.1734,-5.1804,-5.1888,-5.1926,-5.2019,-5.2128,-5.2131,-5.2253,-5.2325,-5.2456,-5.2504,-5.2598,-5.2566,-5.2606,-5.2617,-5.2627,-5.2636,-5.2367,-5.2616,-5.2616,-5.2615,-5.2615,-5.2614,0,-5.1653,-5.17,-5.1796,-5.1902,-5.1984,-5.1959,-5.204,-5.211,-5.2218,-5.2287,-5.2373,-5.2501,-5.2603,-5.2654,-5.2755,-5.2821,-5.2815,-5.2847,-5.2843,-5.2853,-5.2659,-5.2625,-5.285,-5.285,-5.285,-5.285,-5.285,-5.285,-5.1789,-5.1931,-5.195,-5.2121,-5.2166,-5.2286,-5.2335,-5.2399,-5.2455,-5.2599,-5.2684,-5.2716,-5.2778,-5.2884,-5.2977,-5.2989,-5.3027,-5.3064,-5.3072,-5.2891,-5.2867,-5.2844,-5.2812,-5.3072,-5.3073,-5.3258,-5.326,-5.3261]}]]